CAPE
0 0 0 0 0 0 0 0 0 0 0 0 0 0 0 0 0 0 12 0 0 1080 685 513 1138 1558 1246 1404 546 293 415 138 53 52 39 61 50 69 86 22 46 146 0 0 0
0 0 0 0 0 0 0 0 0 0 0 0 0 0 0 0 4 10 3 594 1496 1298 675 1288 1522 1141 802 466 197 27 98 335 99 135 69 24 65 37 118 180 61 3 0 0 13
0 0 0 0 0 0 0 0 0 0 0 0 0 0 6 17 3 17 144 1727 1489 1296 896 1175 586 558 290 127 320 60 216 171 150 154 41 112 105 74 87 89 5 1 13 0 0
0 0 0 0 0 0 0 0 0 0 0 0 0 0 62 0 0 3 1619 1348 1823 906 1238 1669 362 121 20 52 46 86 98 166 314 179 98 95 80 45 149 37 14 0 7 0 14
0 0 0 0 0 0 0 0 0 0 0 0 0 2 56 3 8 189 1967 1376 705 936 1022 1419 103 48 186 205 187 61 55 245 371 252 235 17 1 18 44 0 0 0 0 0 0
0 0 0 0 0 0 0 0 0 0 0 0 0 2 26 21 21 80 151 233 745 841 1150 693 527 182 124 74 38 7 42 167 471 248 132 88 16 7 3 0 0 0 0 2 2
0 0 0 0 0 0 0 0 0 0 0 0 0 39 67 1 23 105 144 229 709 763 780 196 570 291 0 8 47 43 179 222 623 344 23 26 10 0 8 0 0 0 0 0 10
0 0 0 0 0 0 0 0 0 0 0 0 0 13 123 0 0 100 140 422 511 742 838 102 352 99 30 38 61 141 59 282 536 438 27 22 91 0 12 0 0 0 0 6 1
0 0 0 0 0 0 0 0 0 0 0 0 0 10 121 34 31 75 322 709 746 910 934 705 413 168 94 50 24 41 0 43 397 209 52 28 58 0 5 0 0 2 19 76 109
0 0 0 0 0 0 0 0 0 0 0 0 0 0 50 23 52 96 130 630 587 745 724 705 515 261 66 59 14 35 1 48 201 164 128 14 19 0 0 0 0 8 14 58 117
0 0 0 0 0 0 0 0 0 0 0 0 0 0 0 0 18 166 153 142 347 552 455 397 293 161 58 5 25 23 2 16 183 226 494 112 175 191 42 0 0 12 49 102 122
0 0 0 0 0 0 0 0 0 0 0 0 0 0 0 0 0 44 269 198 292 412 391 365 130 10 4 3 0 4 14 15 306 135 18 341 410 272 54 5 0 45 50 91 178
0 0 0 0 0 0 0 0 0 0 0 0 0 0 0 0 0 76 326 320 264 332 280 327 134 65 43 9 68 0 12 69 211 6 155 205 317 154 59 30 33 86 184 203 92
0 0 0 0 0 0 0 0 0 0 0 0 0 0 0 0 0 82 275 302 196 234 154 127 165 167 89 100 28 91 168 171 121 97 71 18 217 359 457 111 38 86 163 228 211
0 0 0 0 0 0 0 0 0 0 0 0 0 0 0 0 0 0 36 179 143 111 38 84 272 104 116 66 69 227 138 146 60 57 1 74 15 0 459 406 277 2 34 88 204
0 0 0 0 0 0 0 0 0 0 0 0 0 0 0 0 0 0 0 45 19 25 7 5 140 73 120 122 127 309 154 155 123 76 37 12 12 0 9 411 484 165 34 47 152
0 0 0 0 0 0 0 0 16 5 20 0 0 0 0 0 0 0 1 24 0 0 1 15 98 90 91 102 68 128 57 7 14 10 49 0 67 140 120 205 394 497 108 142 179
0 0 0 0 0 0 0 8 22 258 245 0 0 0 0 0 0 0 0 0 0 0 4 6 6 61 134 124 88 70 5 46 0 0 51 6 129 202 341 360 346 373 52 140 292
0 0 4 0 0 0 0 27 144 199 11 0 0 0 0 0 0 0 0 0 0 0 4 0 2 39 77 58 126 25 4 0 2 12 28 154 53 282 431 735 697 564 409 76 8
0 168 362 128 0 0 0 48 97 152 91 21 0 0 0 0 0 2 0 0 0 0 0 0 0 59 64 25 27 31 15 25 50 30 117 28 141 133 569 822 812 565 437 213 6
1 344 328 133 30 92 105 96 57 86 137 78 73 87 61 4 3 0 0 0 0 0 0 0 22 34 1 13 26 20 22 2 9 87 233 71 56 42 627 740 731 775 599 341 235
0 276 299 10 41 86 5 29 40 93 70 20 59 29 58 84 77 1 1 8 2 0 0 4 0 2 4 38 111 85 58 1 6 468 236 300 583 527 727 843 869 767 590 649 590
0 0 97 6 204 182 210 79 72 113 19 0 31 5 73 86 272 104 65 79 2 3 29 0 0 0 0 38 78 56 26 3 8 408 604 519 822 1061 1311 1441 1442 1383 938 940 740
0 316 197 129 275 66 3 22 0 20 123 28 16 66 33 69 189 141 100 77 45 3 39 35 4 1 1 21 12 10 24 11 75 640 884 853 1089 1077 1249 1732 2144 2400 2576 2602 2421
2 214 224 204 453 168 46 59 55 25 110 44 80 9 101 140 140 100 122 57 5 0 13 20 14 34 34 6 1 0 0 0 172 482 329 403 968 1473 1654 1588 1429 1498 1857 2092 2225
14 0 27 235 250 330 150 26 48 35 87 0 47 64 160 135 70 55 9 109 107 69 12 18 136 240 48 8 12 28 4 2 160 160 588 1035 1268 1534 1240 839 930 1271 1215 1044 1274
0 0 0 0 71 69 127 65 55 26 247 95 6 22 233 184 50 21 7 74 117 57 150 108 104 49 66 4 32 33 121 245 129 337 605 841 855 1181 912 995 1020 885 874 990 1127
CIN
-0 -0 -0 -0 -0 -0 -0 -0 -0 -0 -0 -0 -0 -0 -0 -0 -0 -0 -321 -0 -0 -345 -410 -156 -83 -61 -38 -15 -6 -76 -93 -28 -47 -34 -23 -8 -2 -36 -33 -30 -28 -12 -0 -0 -0
-0 -0 -0 -0 -0 -0 -0 -0 -0 -0 -0 -0 -0 -0 -0 -0 -293 -366 -144 -352 -278 -341 -242 -81 -55 -26 -13 -2 -27 -242 -84 -62 -18 -23 -18 -19 -15 -2 -34 -28 -28 -14 -0 -0 -110
-0 -0 -0 -0 -0 -0 -0 -0 -0 -0 -0 -0 -0 -0 -333 -388 -174 -345 -547 -273 -276 -324 -56 -71 -35 -31 -18 -16 -177 -275 -139 -46 -8 -29 -5 -33 -23 -20 -37 -55 -22 -1 -159 -0 -0
-0 -0 -0 -0 -0 -0 -0 -0 -0 -0 -0 -0 -0 -0 -342 -0 -0 -408 -412 -367 -319 -67 -65 -52 -55 -38 -38 -23 -18 -87 -22 -39 -15 -30 -11 -12 -2 -35 -53 -42 -6 -1 -15 -0 -9
-0 -0 -0 -0 -0 -0 -0 -0 -0 -0 -0 -0 -0 -321 -373 -190 -387 -663 -383 -416 -183 -70 -71 -41 -25 -86 -126 -83 -82 -170 -136 -16 -54 -85 -119 -5 -0 -36 -71 -0 -0 -0 -0 -0 -0
-0 -0 -0 -0 -0 -0 -0 -0 -0 -0 -0 -0 -0 -387 -393 -371 -381 -338 -268 -261 -78 -68 -85 -5 -80 -88 -114 -1 -5 -135 -25 -95 -65 -153 -24 -58 -59 -42 -15 -0 -0 -0 -0 -2 -10
-0 -0 -0 -0 -0 -0 -0 -0 -0 -0 -0 -0 -0 -434 -376 -370 -387 -291 -233 -223 -77 -80 -34 -16 -132 -359 -25 -21 -7 -108 -126 -53 -137 -28 -22 -148 -56 -0 -94 -0 -0 -0 -0 -0 -61
-0 -0 -0 -0 -0 -0 -0 -0 -0 -0 -0 -0 -0 -414 -292 -0 -0 -263 -230 -190 -127 -71 -48 -58 -86 -461 -468 -502 -175 -95 -19 -106 -95 -23 -73 -81 -39 -0 -32 -0 -3 -0 -16 -5 -2
-0 -0 -0 -0 -0 -0 -0 -0 -0 -0 -0 -0 -0 -179 -243 -421 -325 -272 -180 -92 -74 -60 -20 -171 -33 -72 -567 -393 -183 -65 -0 -23 -38 -18 -52 -101 -89 -0 -9 -0 -0 -37 -42 -29 -32
-0 -0 -0 -0 -0 -0 -0 -0 -0 -0 -0 -0 -0 -0 -288 -230 -206 -163 -149 -71 -44 -35 -12 -5 -28 -45 -509 -353 -80 -114 -1 -23 -27 -47 -91 -13 -63 -0 -0 -0 -0 -84 -58 -67 -28
-0 -0 -0 -0 -0 -0 -0 -0 -0 -0 -0 -0 -0 -0 -0 -0 -237 -47 -108 -101 -47 -30 -15 -12 -161 -195 -87 -400 -270 -126 -25 -1 -25 -35 -133 -15 -22 -70 -31 -0 -0 -55 -48 -26 -20
-0 -0 -0 -0 -0 -0 -0 -0 -0 -0 -0 -0 -0 -0 -0 -0 -0 -112 -34 -38 -25 -33 -9 -22 -71 -208 -83 -32 -0 -53 -112 -5 -40 -52 -227 -57 -35 -96 -28 -24 -0 -31 -63 -56 -31
-0 -0 -0 -0 -0 -0 -0 -0 -0 -0 -0 -0 -0 -0 -0 -0 -0 -177 -35 -21 -20 -27 -26 -43 -145 -133 -86 -94 -123 -0 -86 -50 -52 -6 -84 -58 -21 -38 -14 -14 -42 -22 -37 -41 -46
-0 -0 -0 -0 -0 -0 -0 -0 -0 -0 -0 -0 -0 -0 -0 -0 -0 -177 -59 -28 -30 -44 -12 -71 -78 -185 -212 -246 -47 -31 -75 -49 -133 -15 -225 -189 -10 -28 -28 -72 -22 -38 -40 -54 -20
-0 -0 -0 -0 -0 -0 -0 -0 -0 -0 -0 -0 -0 -0 -0 -0 -0 -0 -165 -71 -72 -53 -60 -24 -26 -61 -48 -47 -18 -41 -41 -27 -15 -18 -22 -233 -83 -0 -25 -38 -57 -6 -43 -38 -25
-0 -0 -0 -0 -0 -0 -0 -0 -0 -0 -0 -0 -0 -0 -0 -0 -0 -0 -0 -125 -145 -114 -178 -182 -72 -51 -10 -66 -62 -137 -83 -240 -343 -410 -68 -97 -156 -0 -15 -49 -45 -41 -53 -21 -23
-0 -0 -0 -0 -0 -0 -0 -0 -16 -22 -12 -0 -0 -0 -0 -0 -0 -0 -73 -126 -0 -60 -60 -172 -128 -36 -27 -62 -28 -50 -157 -102 -83 -251 -117 -0 -345 -74 -40 -6 -22 -97 -50 -15 -25
-0 -0 -0 -0 -0 -0 -0 -16 -57 -31 -55 -0 -0 -0 -0 -0 -0 -0 -0 -3 -0 -0 -91 -145 -54 -31 -46 -33 -3 -9 -27 -293 -52 -0 -19 -217 -30 -16 -6 -14 -36 -10 -744 -189 -216
-0 -0 -79 -1 -0 -0 -0 -64 -57 -27 -1 -0 -0 -0 -0 -0 -0 -0 -0 -0 -0 -0 -113 -0 -78 -66 -21 -6 -22 -115 -76 -1 -162 -260 -74 -119 -53 -21 -27 -50 -110 -51 -32 -229 -242
-0 -58 -28 -126 -0 -0 -0 -18 -23 -31 -58 -7 -0 -0 -0 -0 -0 -5 -0 -0 -0 -0 -0 -0 -0 -71 -10 -47 -45 -60 -70 -105 -109 -83 -86 -24 -228 -31 -32 -41 -130 -41 -48 -58 -244
-14 -41 -206 -168 -84 -64 -44 -80 -88 -73 -117 -87 -131 -41 -10 -10 -2 -2 -0 -0 -0 -0 -0 -0 -108 -71 -110 -22 -77 -67 -55 -23 -70 -42 -144 -63 -403 -234 -29 -28 -52 -160 -167 -43 -301
-0 -195 -149 -93 -141 -290 -247 -96 -28 -17 -43 -264 -170 -22 -36 -58 -12 -1 -15 -3 -1 -0 -0 -93 -3 -32 -175 -80 -25 -54 -95 -34 -5 -37 -72 -81 -41 -23 -15 -16 -21 -32 -77 -53 -29
-0 -0 -155 -36 -119 -130 -99 -105 -74 -30 -19 -1 -92 -38 -68 -113 -158 -40 -27 -28 -2 -5 -70 -0 -0 -0 -0 -56 -51 -49 -91 -8 -2 -72 -55 -96 -22 -22 -29 -22 -33 -38 -55 -60 -49
-0 -136 -83 -99 -73 -55 -18 -73 -1 -41 -46 -87 -23 -63 -91 -183 -91 -130 -70 -41 -14 -20 -144 -131 -21 -20 -5 -90 -70 -130 -109 -48 -25 -74 -87 -80 -51 -40 -38 -25 -24 -25 -25 -41 -54
-17 -101 -83 -25 -42 -71 -29 -241 -128 -110 -6 -24 -89 -21 -139 -211 -139 -255 -262 -90 -36 -0 -27 -15 -32 -88 -66 -56 -9 -3 -0 -0 -33 -146 -111 -188 -83 -41 -27 -33 -50 -66 -42 -68 -77
-333 -0 -104 -74 -21 -22 -19 -167 -132 -82 -42 -0 -74 -93 -209 -235 -265 -304 -503 -196 -67 -21 -31 -22 -72 -63 -116 -231 -207 -181 -108 -35 -68 -17 -67 -82 -46 -36 -54 -72 -64 -47 -73 -111 -109
-0 -0 -0 -0 -32 -41 -21 -18 -27 -41 -56 -83 -1 -84 -73 -138 -111 -332 -24 -17 -17 -17 -57 -29 -116 -116 -160 -233 -176 -128 -34 -58 -134 -168 -108 -66 -60 -60 -95 -37 -38 -51 -109 -132 -138
Wind_Speed
nan nan nan nan nan nan nan nan nan nan nan nan nan nan nan nan nan nan nan nan nan 18 9 9 11 17 9 5 10 4 8 16 nan nan nan nan nan nan nan nan nan 17 nan nan nan
nan nan nan nan nan nan nan nan nan nan nan nan nan nan nan nan nan nan nan 22 21 22 18 24 23 21 10 16 17 nan nan 13 nan 10 nan nan nan nan 27 20 nan nan nan nan nan
nan nan nan nan nan nan nan nan nan nan nan nan nan nan nan nan nan nan 26 24 27 29 25 26 6 1 15 13 28 nan 22 18 12 9 nan 13 15 nan nan nan nan nan nan nan nan
nan nan nan nan nan nan nan nan nan nan nan nan nan nan nan nan nan nan 16 22 25 22 23 14 6 7 nan nan nan nan nan 27 4 13 nan nan nan nan 17 nan nan nan nan nan nan
nan nan nan nan nan nan nan nan nan nan nan nan nan nan nan nan nan 7 10 12 15 15 17 7 13 nan 17 19 11 nan nan 14 18 19 20 nan nan nan nan nan nan nan nan nan nan
nan nan nan nan nan nan nan nan nan nan nan nan nan nan nan nan nan nan 8 8 11 12 4 36 3 16 16 nan nan nan nan 26 22 24 15 nan nan nan nan nan nan nan nan nan nan
nan nan nan nan nan nan nan nan nan nan nan nan nan nan nan nan nan 9 4 3 3 11 38 45 38 36 nan nan nan nan 21 33 20 12 nan nan nan nan nan nan nan nan nan nan nan
nan nan nan nan nan nan nan nan nan nan nan nan nan nan 12 nan nan 8 2 4 4 12 35 47 46 nan nan nan nan 3 nan 7 24 15 nan nan nan nan nan nan nan nan nan nan nan
nan nan nan nan nan nan nan nan nan nan nan nan nan nan 17 nan nan nan 3 2 5 15 22 30 16 12 nan nan nan nan nan nan 20 9 nan nan nan nan nan nan nan nan nan nan 16
nan nan nan nan nan nan nan nan nan nan nan nan nan nan nan nan nan nan 4 1 7 13 12 10 4 8 nan nan nan nan nan nan 23 21 8 nan nan nan nan nan nan nan nan nan 21
nan nan nan nan nan nan nan nan nan nan nan nan nan nan nan nan nan 9 7 6 7 13 9 4 8 14 nan nan nan nan nan nan 24 16 8 7 12 12 nan nan nan nan nan 16 20
nan nan nan nan nan nan nan nan nan nan nan nan nan nan nan nan nan nan 13 8 7 13 5 8 20 nan nan nan nan nan nan nan 21 32 nan 22 28 15 nan nan nan nan nan nan 12
nan nan nan nan nan nan nan nan nan nan nan nan nan nan nan nan nan nan 9 8 9 14 13 9 17 nan nan nan nan nan nan nan 42 nan 20 20 41 8 nan nan nan nan 16 5 nan
nan nan nan nan nan nan nan nan nan nan nan nan nan nan nan nan nan nan 8 11 13 17 27 12 16 16 nan 28 nan nan 20 30 26 nan nan nan 12 12 6 7 nan nan 19 16 15
nan nan nan nan nan nan nan nan nan nan nan nan nan nan nan nan nan nan nan 16 12 20 nan nan 4 2 2 nan nan 5 28 28 nan nan nan nan nan nan 9 15 13 nan nan nan 11
nan nan nan nan nan nan nan nan nan nan nan nan nan nan nan nan nan nan nan nan nan nan nan nan 12 nan 8 32 14 30 29 27 19 nan nan nan nan nan nan 18 9 9 nan nan 15
nan nan nan nan nan nan nan nan nan nan nan nan nan nan nan nan nan nan nan nan nan nan nan nan nan nan nan 20 nan 22 nan nan nan nan nan nan nan 25 23 25 34 14 3 6 9
nan nan nan nan nan nan nan nan nan 32 26 nan nan nan nan nan nan nan nan nan nan nan nan nan nan nan 12 8 nan nan nan nan nan nan nan nan 19 17 16 22 26 39 nan 43 35
nan nan nan nan nan nan nan nan 23 20 nan nan nan nan nan nan nan nan nan nan nan nan nan nan nan nan nan nan 23 nan nan nan nan nan nan 15 nan 7 4 7 29 32 32 nan nan
nan 5 7 7 nan nan nan nan nan 25 nan nan nan nan nan nan nan nan nan nan nan nan nan nan nan nan nan nan nan nan nan nan nan nan 23 nan 16 11 13 3 22 36 46 36 nan
nan 8 4 18 nan nan 14 nan nan nan 15 nan nan nan nan nan nan nan nan nan nan nan nan nan nan nan nan nan nan nan nan nan nan nan 32 nan nan nan 12 12 17 27 36 35 26
nan 9 7 nan nan nan nan nan nan nan nan nan nan nan nan nan nan nan nan nan nan nan nan nan nan nan nan nan 22 nan nan nan nan 19 30 34 27 20 27 5 14 25 27 23 24
nan nan nan nan 3 7 15 nan nan 19 nan nan nan nan nan nan 27 16 nan nan nan nan nan nan nan nan nan nan nan nan nan nan nan 27 21 32 20 14 16 10 11 14 25 24 25
nan 17 18 13 12 nan nan nan nan nan 12 nan nan nan nan nan 12 22 23 nan nan nan nan nan nan nan nan nan nan nan nan nan nan 24 18 17 21 16 19 15 7 7 11 15 15
nan 21 21 16 15 14 nan nan nan nan 6 nan nan nan 14 12 19 34 23 nan nan nan nan nan nan nan nan nan nan nan nan nan 12 27 28 25 27 17 16 26 24 11 9 16 19
nan nan nan 12 16 13 10 nan nan nan nan nan nan nan 17 27 nan nan nan 12 15 nan nan nan 15 11 nan nan nan nan nan nan 13 26 32 32 24 20 24 19 18 4 13 18 15
nan nan nan nan nan nan 5 nan nan nan 21 nan nan nan 14 21 nan nan nan nan 15 nan 23 12 15 nan nan nan nan nan 23 23 25 32 35 29 19 23 18 12 8 8 14 16 17
Wind_Direction
nan nan nan nan nan nan nan nan nan nan nan nan nan nan nan nan nan nan nan nan nan 24 39 27 51 63 18 93 238 178 92 79 nan nan nan nan nan nan nan nan nan 269 nan nan nan
nan nan nan nan nan nan nan nan nan nan nan nan nan nan nan nan nan nan nan 31 21 11 37 42 36 26 334 273 176 nan nan 66 nan 11 nan nan nan nan 349 321 nan nan nan nan nan
nan nan nan nan nan nan nan nan nan nan nan nan nan nan nan nan nan nan 10 16 14 31 45 52 11 197 312 339 16 nan 64 76 245 335 nan 338 13 nan nan nan nan nan nan nan nan
nan nan nan nan nan nan nan nan nan nan nan nan nan nan nan nan nan nan 346 8 19 29 59 71 134 158 nan nan nan nan nan 65 64 203 nan nan nan nan 336 nan nan nan nan nan nan
nan nan nan nan nan nan nan nan nan nan nan nan nan nan nan nan nan 334 2 1 14 34 49 89 197 nan 200 154 117 nan nan 111 255 238 192 nan nan nan nan nan nan nan nan nan nan
nan nan nan nan nan nan nan nan nan nan nan nan nan nan nan nan nan nan 352 349 23 25 207 213 242 269 308 nan nan nan nan 80 250 260 163 nan nan nan nan nan nan nan nan nan nan
nan nan nan nan nan nan nan nan nan nan nan nan nan nan nan nan nan 294 344 71 334 358 264 271 64 18 nan nan nan nan 76 145 225 357 nan nan nan nan nan nan nan nan nan nan nan
nan nan nan nan nan nan nan nan nan nan nan nan nan nan 219 nan nan 286 316 91 21 69 303 360 30 nan nan nan nan 40 nan 185 30 12 nan nan nan nan nan nan nan nan nan nan nan
nan nan nan nan nan nan nan nan nan nan nan nan nan nan 216 nan nan nan 305 108 43 66 323 5 34 29 nan nan nan nan nan nan 90 30 nan nan nan nan nan nan nan nan nan nan 55
nan nan nan nan nan nan nan nan nan nan nan nan nan nan nan nan nan nan 214 138 129 117 93 26 46 48 nan nan nan nan nan nan 27 18 297 nan nan nan nan nan nan nan nan nan 43
nan nan nan nan nan nan nan nan nan nan nan nan nan nan nan nan nan 180 221 199 154 136 112 190 75 32 nan nan nan nan nan nan 17 327 225 109 77 41 nan nan nan nan nan 48 74
nan nan nan nan nan nan nan nan nan nan nan nan nan nan nan nan nan nan 195 212 199 132 142 136 69 nan nan nan nan nan nan nan 282 312 nan 133 91 53 nan nan nan nan nan nan 77
nan nan nan nan nan nan nan nan nan nan nan nan nan nan nan nan nan nan 212 201 172 140 100 42 77 nan nan nan nan nan nan nan 299 nan 319 329 99 61 nan nan nan nan 12 27 nan
nan nan nan nan nan nan nan nan nan nan nan nan nan nan nan nan nan nan 187 209 196 138 119 100 58 69 nan 70 nan nan 254 247 298 nan nan nan 32 56 46 77 nan nan 10 5 40
nan nan nan nan nan nan nan nan nan nan nan nan nan nan nan nan nan nan nan 215 179 147 nan nan 119 94 340 nan nan 273 255 255 nan nan nan nan nan nan 103 83 56 nan nan nan 326
nan nan nan nan nan nan nan nan nan nan nan nan nan nan nan nan nan nan nan nan nan nan nan nan 146 nan 255 72 298 320 278 275 295 nan nan nan nan nan nan 44 37 22 nan nan 317
nan nan nan nan nan nan nan nan nan nan nan nan nan nan nan nan nan nan nan nan nan nan nan nan nan nan nan 116 nan 261 nan nan nan nan nan nan nan 53 65 30 10 7 328 294 327
nan nan nan nan nan nan nan nan nan 31 76 nan nan nan nan nan nan nan nan nan nan nan nan nan nan nan 142 98 nan nan nan nan nan nan nan nan 60 56 77 11 12 337 nan 197 213
nan nan nan nan nan nan nan nan 80 93 nan nan nan nan nan nan nan nan nan nan nan nan nan nan nan nan nan nan 261 nan nan nan nan nan nan 22 nan 82 79 300 309 333 319 nan nan
nan 296 348 2 nan nan nan nan nan 114 nan nan nan nan nan nan nan nan nan nan nan nan nan nan nan nan nan nan nan nan nan nan nan nan 349 nan 6 60 122 357 343 346 351 3 nan
nan 263 254 305 nan nan 110 nan nan nan 214 nan nan nan nan nan nan nan nan nan nan nan nan nan nan nan nan nan nan nan nan nan nan nan 303 nan nan nan 90 27 6 2 357 19 44
nan 253 269 nan nan nan nan nan nan nan nan nan nan nan nan nan nan nan nan nan nan nan nan nan nan nan nan nan 137 nan nan nan nan 271 283 292 273 99 54 339 324 356 2 8 33
nan nan nan nan 213 78 217 nan nan 97 nan nan nan nan nan nan 192 190 nan nan nan nan nan nan nan nan nan nan nan nan nan nan nan 280 286 295 331 341 312 295 312 330 346 356 14
nan 235 227 212 226 nan nan nan nan nan 340 nan nan nan nan nan 204 186 180 nan nan nan nan nan nan nan nan nan nan nan nan nan nan 264 285 291 300 312 289 289 271 289 323 310 293
nan 248 280 243 259 223 nan nan nan nan 148 nan nan nan 290 221 240 216 212 nan nan nan nan nan nan nan nan nan nan nan nan nan 231 296 287 316 300 325 292 302 313 320 326 314 308
nan nan nan 203 241 281 325 nan nan nan nan nan nan nan 258 237 nan nan nan 153 138 nan nan nan 214 237 nan nan nan nan nan nan 232 282 281 297 298 322 330 347 284 299 298 302 291
nan nan nan nan nan nan 112 nan nan nan 248 nan nan nan 248 238 nan nan nan nan 139 nan 146 212 256 nan nan nan nan nan 181 186 249 277 286 301 330 329 327 312 261 257 293 297 286